| time (UTC) | temp F | wind direction | speed knots | gust knots | rain 1hr in | rain 24hr in | rain mn in | humidity % | barometer mb |
| 20260502231759 | 82 | 131 | 5.2 | 0.0 | 0.00 | 0.00 | 0.00 | 87 | 1012.0 |
| 20260502224754 | 83 | 131 | 5.2 | 0.0 | 0.00 | 0.00 | 0.00 | 87 | 1011.0 |
| 20260502221759 | 80 | 132 | 5.2 | 0.0 | 0.00 | 0.00 | 0.00 | 86 | 1012.0 |
| 20260502214754 | 81 | 132 | 5.2 | 0.0 | 0.00 | 0.00 | 0.00 | 87 | 1011.0 |
| 20260502211754 | 80 | 137 | 5.2 | 0.0 | 0.00 | 0.00 | 0.00 | 85 | 1012.0 |
| 20260502204755 | 81 | 137 | 5.2 | 0.0 | 0.00 | 0.00 | 0.00 | 87 | 1011.0 |
| 20260502201754 | 81 | 134 | 5.2 | 0.0 | 0.00 | 0.00 | 0.00 | 85 | 1012.0 |
| 20260502194755 | 81 | 134 | 5.2 | 0.0 | 0.00 | 0.00 | 0.00 | 88 | 1011.0 |
| 20260502191758 | 82 | 137 | 4.3 | 0.0 | 0.00 | 0.00 | 0.00 | 89 | 1013.0 |
| 20260502184754 | 82 | 137 | 4.3 | 0.0 | 0.00 | 0.00 | 0.00 | 92 | 1011.0 |
| 20260502181754 | 83 | 135 | 3.5 | 0.0 | 0.00 | 0.00 | 0.00 | 91 | 1012.0 |
| 20260502161759 | 84 | 123 | 2.6 | 0.0 | 0.00 | 0.00 | 0.00 | 87 | 1014.0 |
| 20260502151731 | 83 | 105 | 2.6 | 0.0 | 0.00 | 0.00 | 0.00 | 87 | 1014.0 |
| 20260502151238 | 83 | 105 | 2.6 | 0.0 | 0.00 | 0.00 | 0.00 | 87 | 1014.0 |
| 20260502121238 | 85 | 35 | 0.9 | 0.0 | 0.00 | 0.00 | 0.00 | 87 | 1011.0 |
| 20260502114239 | 84 | 342 | 0.9 | 0.0 | 0.00 | 0.00 | 0.00 | 87 | 1011.0 |
| 20260502070003 | 84 | 353 | 10.4 | 0.0 | 0.00 | 0.00 | 0.00 | 78 | 1009.0 |
| 20260502062958 | 85 | 347 | 10.4 | 0.0 | 0.00 | 0.00 | 0.00 | 74 | 1009.0 |
| 20260502052959 | 87 | 337 | 7.8 | 0.0 | 0.00 | 0.00 | 0.00 | 84 | 1010.0 |
| 20260502050002 | 88 | 337 | 7.8 | 0.0 | 0.00 | 0.00 | 0.00 | 75 | 1010.0 |
| 20260502042958 | 88 | 336 | 5.2 | 0.0 | 0.00 | 0.00 | 0.00 | 82 | 1011.0 |
| 20260502032958 | 87 | 346 | 5.2 | 0.0 | 0.00 | 0.00 | 0.00 | 81 | 1013.0 |
| 20260502025953 | 88 | 346 | 5.2 | 0.0 | 0.00 | 0.00 | 0.00 | 76 | 1013.0 |